contact:dominique.lefevre@mio.osupytheas.fr, maurice.libes@osupytheas.fr, didier.mallarino@osupytheas.fr
Project:EMSO http://www.emso-fr.org/EMSO-France
Depth: 2436.0 m
Title:EMSO Ligure Ouest : Data MII capteur MICROCAT
DateTime_Computer,Latitude,Longitude,Temperature,Conductivity,Pressure,DateTime_Instrument
DateTime_Computer,Latitude,Longitude,degC,S m-1,dbar,DateTime_Instrument
2021-05-15T00:00:39Z,42.805,6.029,13.2989,4.59997,2470.693,2021-5-15T02:01:50Z
2021-05-15T00:03:42Z,42.805,6.029,13.2990,4.60007,2470.707,2021-5-15T02:04:53Z
2021-05-15T00:06:45Z,42.805,6.029,13.2997,4.60008,2470.693,2021-5-15T02:07:56Z
2021-05-15T00:09:48Z,42.805,6.029,13.2996,4.60003,2470.684,2021-5-15T02:10:59Z
2021-05-15T00:12:51Z,42.805,6.029,13.2993,4.60004,2470.661,2021-5-15T02:14:02Z
2021-05-15T00:15:54Z,42.805,6.029,13.2991,4.60005,2470.693,2021-5-15T02:17:05Z
2021-05-15T00:18:57Z,42.805,6.029,13.2990,4.60005,2470.684,2021-5-15T02:20:08Z
2021-05-15T00:22:01Z,42.805,6.029,13.2987,4.60003,2470.67,2021-5-15T02:23:12Z
2021-05-15T00:25:04Z,42.805,6.029,13.2992,4.60000,2470.693,2021-5-15T02:26:15Z
2021-05-15T00:28:07Z,42.805,6.029,13.2990,4.60003,2470.707,2021-5-15T02:29:18Z
2021-05-15T00:31:10Z,42.805,6.029,13.2990,4.60001,2470.693,2021-5-15T02:32:21Z
2021-05-15T00:34:13Z,42.805,6.029,13.2992,4.60009,2470.707,2021-5-15T02:35:24Z
2021-05-15T00:37:16Z,42.805,6.029,13.2990,4.60004,2470.67,2021-5-15T02:38:27Z
2021-05-15T00:40:19Z,42.805,6.029,13.2995,4.60003,2470.646,2021-5-15T02:41:30Z
2021-05-15T00:43:22Z,42.805,6.029,13.2992,4.60005,2470.67,2021-5-15T02:44:33Z
2021-05-15T00:46:26Z,42.805,6.029,13.2993,4.60005,2470.67,2021-5-15T02:47:37Z
2021-05-15T00:49:29Z,42.805,6.029,13.2991,4.60003,2470.661,2021-5-15T02:50:40Z
2021-05-15T00:52:32Z,42.805,6.029,13.2993,4.60008,2470.646,2021-5-15T02:53:43Z
2021-05-15T00:55:35Z,42.805,6.029,13.2990,4.60006,2470.646,2021-5-15T02:56:46Z
2021-05-15T00:58:38Z,42.805,6.029,13.2990,4.60004,2470.661,2021-5-15T02:59:49Z
2021-05-15T01:01:41Z,42.805,6.029,13.2991,4.60008,2470.684,2021-5-15T03:02:52Z
2021-05-15T01:04:44Z,42.805,6.029,13.2994,4.60005,2470.624,2021-5-15T03:05:55Z
2021-05-15T01:07:47Z,42.805,6.029,13.2991,4.60002,2470.661,2021-5-15T03:08:58Z
2021-05-15T01:10:51Z,42.805,6.029,13.2990,4.60008,2470.684,2021-5-15T03:12:02Z
2021-05-15T01:13:54Z,42.805,6.029,13.2993,4.60005,2470.637,2021-5-15T03:15:05Z
2021-05-15T01:16:57Z,42.805,6.029,13.2995,4.60003,2470.624,2021-5-15T03:18:08Z
2021-05-15T01:20:00Z,42.805,6.029,13.2996,4.60003,2470.646,2021-5-15T03:21:11Z
2021-05-15T01:23:03Z,42.805,6.029,13.2991,4.60007,2470.661,2021-5-15T03:24:14Z
2021-05-15T01:26:06Z,42.805,6.029,13.2991,4.60004,2470.646,2021-5-15T03:27:17Z
2021-05-15T01:29:09Z,42.805,6.029,13.2992,4.60003,2470.661,2021-5-15T03:30:20Z
2021-05-15T01:32:12Z,42.805,6.029,13.2993,4.60002,2470.637,2021-5-15T03:33:23Z
2021-05-15T01:35:16Z,42.805,6.029,13.2993,4.60001,2470.646,2021-5-15T03:36:27Z
2021-05-15T01:38:19Z,42.805,6.029,13.2988,4.60003,2470.67,2021-5-15T03:39:30Z
2021-05-15T01:41:22Z,42.805,6.029,13.2992,4.60007,2470.661,2021-5-15T03:42:33Z
2021-05-15T01:44:25Z,42.805,6.029,13.2987,4.60000,2470.646,2021-5-15T03:45:36Z
2021-05-15T01:47:28Z,42.805,6.029,13.2993,4.60003,2470.661,2021-5-15T03:48:39Z
2021-05-15T01:50:31Z,42.805,6.029,13.2991,4.60003,2470.646,2021-5-15T03:51:42Z
2021-05-15T01:53:34Z,42.805,6.029,13.2991,4.59996,2470.661,2021-5-15T03:54:45Z
2021-05-15T01:56:37Z,42.805,6.029,13.2989,4.60003,2470.646,2021-5-15T03:57:48Z
2021-05-15T01:59:41Z,42.805,6.029,13.2992,4.60003,2470.614,2021-5-15T04:00:52Z
2021-05-15T02:02:44Z,42.805,6.029,13.2987,4.60004,2470.624,2021-5-15T04:03:55Z
2021-05-15T02:05:47Z,42.805,6.029,13.2991,4.60005,2470.646,2021-5-15T04:06:58Z
2021-05-15T02:08:50Z,42.805,6.029,13.2991,4.60003,2470.646,2021-5-15T04:10:01Z
2021-05-15T02:11:53Z,42.805,6.029,13.2990,4.59999,2470.624,2021-5-15T04:13:04Z
2021-05-15T02:14:56Z,42.805,6.029,13.2991,4.60004,2470.624,2021-5-15T04:16:07Z
2021-05-15T02:17:59Z,42.805,6.029,13.2989,4.60003,2470.646,2021-5-15T04:19:10Z
2021-05-15T02:21:02Z,42.805,6.029,13.2989,4.60000,2470.661,2021-5-15T04:22:13Z
2021-05-15T02:24:06Z,42.805,6.029,13.2991,4.59999,2470.624,2021-5-15T04:25:17Z
2021-05-15T02:27:09Z,42.805,6.029,13.2993,4.60003,2470.646,2021-5-15T04:28:20Z
2021-05-15T02:30:12Z,42.805,6.029,13.2990,4.60003,2470.637,2021-5-15T04:31:23Z
2021-05-15T02:33:15Z,42.805,6.029,13.2991,4.60003,2470.6,2021-5-15T04:34:26Z
2021-05-15T02:36:18Z,42.805,6.029,13.2992,4.60003,2470.624,2021-5-15T04:37:29Z
2021-05-15T02:39:21Z,42.805,6.029,13.2991,4.59999,2470.61,2021-5-15T04:40:32Z
2021-05-15T02:42:24Z,42.805,6.029,13.2986,4.59999,2470.614,2021-5-15T04:43:35Z
2021-05-15T02:45:27Z,42.805,6.029,13.2993,4.60003,2470.646,2021-5-15T04:46:38Z
2021-05-15T02:48:31Z,42.805,6.029,13.2990,4.59999,2470.624,2021-5-15T04:49:42Z
2021-05-15T02:51:34Z,42.805,6.029,13.2988,4.60005,2470.6,2021-5-15T04:52:45Z
2021-05-15T02:54:37Z,42.805,6.029,13.2990,4.60000,2470.6,2021-5-15T04:55:48Z
2021-05-15T02:57:40Z,42.805,6.029,13.2990,4.59998,2470.637,2021-5-15T04:58:51Z
2021-05-15T03:00:43Z,42.805,6.029,13.2992,4.60006,2470.6,2021-5-15T05:01:54Z
2021-05-15T03:03:46Z,42.805,6.029,13.2990,4.59999,2470.6,2021-5-15T05:04:57Z
2021-05-15T03:06:49Z,42.805,6.029,13.2991,4.59998,2470.637,2021-5-15T05:08:00Z
2021-05-15T03:09:52Z,42.805,6.029,13.2990,4.59999,2470.637,2021-5-15T05:11:03Z
2021-05-15T03:12:56Z,42.805,6.029,13.2988,4.60000,2470.614,2021-5-15T05:14:07Z
2021-05-15T03:15:59Z,42.805,6.029,13.2986,4.60002,2470.6,2021-5-15T05:17:10Z
2021-05-15T03:19:02Z,42.805,6.029,13.2991,4.60006,2470.646,2021-5-15T05:20:13Z
2021-05-15T03:22:05Z,42.805,6.029,13.2990,4.60005,2470.614,2021-5-15T05:23:16Z
2021-05-15T03:25:08Z,42.805,6.029,13.2992,4.60006,2470.614,2021-5-15T05:26:19Z
2021-05-15T03:28:11Z,42.805,6.029,13.2989,4.60003,2470.591,2021-5-15T05:29:22Z
2021-05-15T03:31:14Z,42.805,6.029,13.2989,4.59999,2470.6,2021-5-15T05:32:25Z
2021-05-15T03:34:17Z,42.805,6.029,13.2992,4.59999,2470.614,2021-5-15T05:35:28Z
2021-05-15T03:37:21Z,42.805,6.029,13.2990,4.60007,2470.591,2021-5-15T05:38:32Z
2021-05-15T03:40:24Z,42.805,6.029,13.2993,4.60002,2470.637,2021-5-15T05:41:35Z
2021-05-15T03:43:27Z,42.805,6.029,13.2996,4.60003,2470.6,2021-5-15T05:44:38Z
2021-05-15T03:46:30Z,42.805,6.029,13.2992,4.60002,2470.614,2021-5-15T05:47:41Z
2021-05-15T03:49:33Z,42.805,6.029,13.2991,4.59999,2470.614,2021-5-15T05:50:44Z
2021-05-15T03:52:36Z,42.805,6.029,13.2994,4.60002,2470.577,2021-5-15T05:53:47Z
2021-05-15T03:55:39Z,42.805,6.029,13.2988,4.59996,2470.577,2021-5-15T05:56:50Z
2021-05-15T03:58:42Z,42.805,6.029,13.2993,4.60009,2470.614,2021-5-15T05:59:53Z
2021-05-15T04:01:46Z,42.805,6.029,13.2992,4.59999,2470.624,2021-5-15T06:02:57Z
2021-05-15T04:04:49Z,42.805,6.029,13.2990,4.60003,2470.614,2021-5-15T06:06:00Z
2021-05-15T04:07:52Z,42.805,6.029,13.2990,4.60001,2470.577,2021-5-15T06:09:03Z
2021-05-15T04:10:55Z,42.805,6.029,13.2993,4.60001,2470.563,2021-5-15T06:12:06Z
2021-05-15T04:13:58Z,42.805,6.029,13.2991,4.59998,2470.6,2021-5-15T06:15:09Z
2021-05-15T04:17:01Z,42.805,6.029,13.2991,4.59999,2470.614,2021-5-15T06:18:12Z
2021-05-15T04:20:04Z,42.805,6.029,13.2991,4.60004,2470.591,2021-5-15T06:21:15Z
2021-05-15T04:23:07Z,42.805,6.029,13.2994,4.60002,2470.6,2021-5-15T06:24:18Z
2021-05-15T04:26:10Z,42.805,6.029,13.2991,4.59999,2470.591,2021-5-15T06:27:21Z
2021-05-15T04:29:14Z,42.805,6.029,13.2994,4.60002,2470.591,2021-5-15T06:30:25Z
2021-05-15T04:32:17Z,42.805,6.029,13.2990,4.60001,2470.553,2021-5-15T06:33:28Z
2021-05-15T04:35:20Z,42.805,6.029,13.2992,4.60011,2470.577,2021-5-15T06:36:31Z
2021-05-15T04:38:23Z,42.805,6.029,13.2992,4.60000,2470.577,2021-5-15T06:39:34Z
2021-05-15T04:41:26Z,42.805,6.029,13.2990,4.60002,2470.577,2021-5-15T06:42:37Z
2021-05-15T04:44:29Z,42.805,6.029,13.2988,4.60002,2470.6,2021-5-15T06:45:40Z
2021-05-15T04:47:32Z,42.805,6.029,13.2990,4.60006,2470.591,2021-5-15T06:48:43Z
2021-05-15T04:50:35Z,42.805,6.029,13.2994,4.60010,2470.553,2021-5-15T06:51:46Z
2021-05-15T04:53:39Z,42.805,6.029,13.2992,4.60006,2470.577,2021-5-15T06:54:50Z
2021-05-15T04:56:42Z,42.805,6.029,13.2991,4.60002,2470.577,2021-5-15T06:57:53Z
2021-05-15T04:59:45Z,42.805,6.029,13.2993,4.60007,2470.577,2021-5-15T07:00:56Z
2021-05-15T05:02:48Z,42.805,6.029,13.2992,4.60002,2470.567,2021-5-15T07:03:59Z
2021-05-15T05:05:51Z,42.805,6.029,13.2991,4.59999,2470.624,2021-5-15T07:07:02Z
2021-05-15T05:08:54Z,42.805,6.029,13.2986,4.59999,2470.614,2021-5-15T07:10:05Z
2021-05-15T05:11:57Z,42.805,6.029,13.2993,4.60003,2470.6,2021-5-15T07:13:08Z
2021-05-15T05:15:00Z,42.805,6.029,13.2990,4.60006,2470.6,2021-5-15T07:16:11Z
2021-05-15T05:18:04Z,42.805,6.029,13.2987,4.60004,2470.577,2021-5-15T07:19:15Z
2021-05-15T05:21:07Z,42.805,6.029,13.2994,4.60005,2470.6,2021-5-15T07:22:18Z
2021-05-15T05:24:10Z,42.805,6.029,13.2991,4.60008,2470.6,2021-5-15T07:25:21Z
2021-05-15T05:27:13Z,42.805,6.029,13.2991,4.60003,2470.6,2021-5-15T07:28:24Z
2021-05-15T05:30:16Z,42.805,6.029,13.2989,4.60002,2470.577,2021-5-15T07:31:27Z
2021-05-15T05:33:19Z,42.805,6.029,13.2993,4.60005,2470.591,2021-5-15T07:34:30Z
2021-05-15T05:36:22Z,42.805,6.029,13.2993,4.60001,2470.637,2021-5-15T07:37:33Z
2021-05-15T05:39:25Z,42.805,6.029,13.2990,4.60003,2470.553,2021-5-15T07:40:36Z
2021-05-15T05:42:29Z,42.805,6.029,13.2988,4.59999,2470.6,2021-5-15T07:43:40Z
2021-05-15T05:45:32Z,42.805,6.029,13.2990,4.59999,2470.614,2021-5-15T07:46:43Z
2021-05-15T05:48:36Z,42.805,6.029,13.2992,4.60001,2470.577,2021-5-15T07:49:47Z
2021-05-15T05:51:39Z,42.805,6.029,13.2991,4.60003,2470.624,2021-5-15T07:52:50Z
2021-05-15T05:54:42Z,42.805,6.029,13.2992,4.60014,2470.6,2021-5-15T07:55:53Z
2021-05-15T05:57:45Z,42.805,6.029,13.2994,4.60004,2470.6,2021-5-15T07:58:56Z
2021-05-15T06:00:48Z,42.805,6.029,13.2990,4.60006,2470.6,2021-5-15T08:01:59Z
2021-05-15T06:03:51Z,42.805,6.029,13.2989,4.60001,2470.6,2021-5-15T08:05:02Z
2021-05-15T06:06:54Z,42.805,6.029,13.2989,4.60004,2470.6,2021-5-15T08:08:05Z
2021-05-15T06:09:57Z,42.805,6.029,13.2993,4.60006,2470.624,2021-5-15T08:11:08Z
2021-05-15T06:13:01Z,42.805,6.029,13.2991,4.60003,2470.6,2021-5-15T08:14:12Z
2021-05-15T06:16:04Z,42.805,6.029,13.2992,4.60006,2470.614,2021-5-15T08:17:15Z
2021-05-15T06:19:07Z,42.805,6.029,13.2988,4.60000,2470.624,2021-5-15T08:20:18Z
2021-05-15T06:22:10Z,42.805,6.029,13.2994,4.60003,2470.6,2021-5-15T08:23:21Z
2021-05-15T06:25:13Z,42.805,6.029,13.2993,4.60002,2470.624,2021-5-15T08:26:24Z
2021-05-15T06:28:16Z,42.805,6.029,13.2990,4.60003,2470.661,2021-5-15T08:29:27Z
2021-05-15T06:31:19Z,42.805,6.029,13.2991,4.60003,2470.614,2021-5-15T08:32:30Z
2021-05-15T06:34:22Z,42.805,6.029,13.2993,4.60010,2470.6,2021-5-15T08:35:33Z
2021-05-15T06:37:25Z,42.805,6.029,13.2990,4.60014,2470.6,2021-5-15T08:38:36Z
2021-05-15T06:40:29Z,42.805,6.029,13.2994,4.60003,2470.6,2021-5-15T08:41:40Z
2021-05-15T06:43:32Z,42.805,6.029,13.2992,4.60009,2470.6,2021-5-15T08:44:43Z
2021-05-15T06:46:35Z,42.805,6.029,13.2987,4.60003,2470.624,2021-5-15T08:47:46Z
2021-05-15T06:49:38Z,42.805,6.029,13.2991,4.60010,2470.624,2021-5-15T08:50:49Z
2021-05-15T06:52:41Z,42.805,6.029,13.2996,4.60013,2470.614,2021-5-15T08:53:52Z
2021-05-15T06:55:44Z,42.805,6.029,13.2992,4.59999,2470.614,2021-5-15T08:56:55Z
2021-05-15T06:58:47Z,42.805,6.029,13.2993,4.60006,2470.614,2021-5-15T08:59:58Z
2021-05-15T07:01:50Z,42.805,6.029,13.2989,4.59999,2470.6,2021-5-15T09:03:01Z
2021-05-15T07:04:54Z,42.805,6.029,13.2996,4.60001,2470.624,2021-5-15T09:06:05Z
2021-05-15T07:07:57Z,42.805,6.029,13.2991,4.60003,2470.624,2021-5-15T09:09:08Z
2021-05-15T07:11:00Z,42.805,6.029,13.2995,4.60013,2470.637,2021-5-15T09:12:11Z
2021-05-15T07:14:03Z,42.805,6.029,13.2993,4.60006,2470.646,2021-5-15T09:15:14Z
2021-05-15T07:17:06Z,42.805,6.029,13.2993,4.60013,2470.637,2021-5-15T09:18:17Z
2021-05-15T07:20:09Z,42.805,6.029,13.2995,4.60008,2470.646,2021-5-15T09:21:20Z
2021-05-15T07:23:12Z,42.805,6.029,13.2990,4.60015,2470.661,2021-5-15T09:24:23Z
2021-05-15T07:26:15Z,42.805,6.029,13.2991,4.60004,2470.624,2021-5-15T09:27:26Z
2021-05-15T07:29:19Z,42.805,6.029,13.2987,4.60001,2470.637,2021-5-15T09:30:30Z
2021-05-15T07:32:22Z,42.805,6.029,13.2991,4.60002,2470.661,2021-5-15T09:33:33Z
2021-05-15T07:35:25Z,42.805,6.029,13.2994,4.60006,2470.624,2021-5-15T09:36:36Z
2021-05-15T07:38:28Z,42.805,6.029,13.2990,4.59998,2470.67,2021-5-15T09:39:39Z
2021-05-15T07:41:31Z,42.805,6.029,13.2990,4.60006,2470.624,2021-5-15T09:42:42Z
2021-05-15T07:44:34Z,42.805,6.029,13.2987,4.60003,2470.661,2021-5-15T09:45:45Z
2021-05-15T07:47:37Z,42.805,6.029,13.2993,4.60005,2470.67,2021-5-15T09:48:48Z
2021-05-15T07:50:40Z,42.805,6.029,13.2993,4.60005,2470.646,2021-5-15T09:51:51Z
2021-05-15T07:53:44Z,42.805,6.029,13.2990,4.60003,2470.637,2021-5-15T09:54:55Z
2021-05-15T07:56:47Z,42.805,6.029,13.2992,4.60007,2470.646,2021-5-15T09:57:58Z
2021-05-15T07:59:50Z,42.805,6.029,13.2988,4.60004,2470.624,2021-5-15T10:01:01Z
2021-05-15T08:02:53Z,42.805,6.029,13.2989,4.60001,2470.67,2021-5-15T10:04:04Z
2021-05-15T08:05:56Z,42.805,6.029,13.2992,4.60006,2470.646,2021-5-15T10:07:07Z
2021-05-15T08:08:59Z,42.805,6.029,13.2993,4.60011,2470.661,2021-5-15T10:10:10Z
2021-05-15T08:12:02Z,42.805,6.029,13.2990,4.60004,2470.661,2021-5-15T10:13:13Z
2021-05-15T08:15:05Z,42.805,6.029,13.2988,4.60006,2470.624,2021-5-15T10:16:16Z
2021-05-15T08:18:09Z,42.805,6.029,13.2990,4.60003,2470.646,2021-5-15T10:19:20Z
2021-05-15T08:21:12Z,42.805,6.029,13.2990,4.59999,2470.646,2021-5-15T10:22:23Z
2021-05-15T08:24:15Z,42.805,6.029,13.2990,4.60009,2470.624,2021-5-15T10:25:26Z
2021-05-15T08:27:18Z,42.805,6.029,13.2998,4.60013,2470.646,2021-5-15T10:28:29Z
2021-05-15T08:30:21Z,42.805,6.029,13.2991,4.60007,2470.684,2021-5-15T10:31:32Z
2021-05-15T08:33:24Z,42.805,6.029,13.2990,4.60009,2470.646,2021-5-15T10:34:35Z
2021-05-15T08:36:27Z,42.805,6.029,13.2990,4.60001,2470.624,2021-5-15T10:37:38Z
2021-05-15T08:39:30Z,42.805,6.029,13.2994,4.60008,2470.637,2021-5-15T10:40:41Z
2021-05-15T08:42:34Z,42.805,6.029,13.2990,4.60009,2470.67,2021-5-15T10:43:45Z
2021-05-15T08:45:37Z,42.805,6.029,13.2994,4.60004,2470.661,2021-5-15T10:46:48Z
2021-05-15T08:48:40Z,42.805,6.029,13.2992,4.60009,2470.624,2021-5-15T10:49:51Z
2021-05-15T08:51:43Z,42.805,6.029,13.2991,4.59999,2470.646,2021-5-15T10:52:54Z
2021-05-15T08:54:46Z,42.805,6.029,13.2993,4.60003,2470.661,2021-5-15T10:55:57Z
2021-05-15T08:57:49Z,42.805,6.029,13.2990,4.60003,2470.661,2021-5-15T10:59:00Z
2021-05-15T09:00:52Z,42.805,6.029,13.2990,4.60004,2470.614,2021-5-15T11:02:03Z
2021-05-15T09:03:55Z,42.805,6.029,13.2991,4.60002,2470.67,2021-5-15T11:05:06Z
2021-05-15T09:06:59Z,42.805,6.029,13.2993,4.60009,2470.624,2021-5-15T11:08:10Z
2021-05-15T09:10:02Z,42.805,6.029,13.2992,4.60009,2470.624,2021-5-15T11:11:13Z
2021-05-15T09:13:05Z,42.805,6.029,13.2990,4.60009,2470.637,2021-5-15T11:14:16Z
2021-05-15T09:16:08Z,42.805,6.029,13.2992,4.60010,2470.646,2021-5-15T11:17:19Z
2021-05-15T09:19:11Z,42.805,6.029,13.2991,4.60000,2470.661,2021-5-15T11:20:22Z
2021-05-15T09:22:14Z,42.805,6.029,13.2988,4.60000,2470.661,2021-5-15T11:23:25Z
2021-05-15T09:25:17Z,42.805,6.029,13.2990,4.60004,2470.661,2021-5-15T11:26:28Z
2021-05-15T09:28:20Z,42.805,6.029,13.2993,4.60003,2470.661,2021-5-15T11:29:32Z
2021-05-15T09:31:24Z,42.805,6.029,13.2991,4.60014,2470.67,2021-5-15T11:32:35Z
2021-05-15T09:34:27Z,42.805,6.029,13.2987,4.59999,2470.661,2021-5-15T11:35:38Z
2021-05-15T09:37:30Z,42.805,6.029,13.2988,4.60009,2470.646,2021-5-15T11:38:41Z
2021-05-15T09:40:33Z,42.805,6.029,13.2991,4.60005,2470.646,2021-5-15T11:41:44Z
2021-05-15T09:43:36Z,42.805,6.029,13.2984,4.60006,2470.61,2021-5-15T11:44:47Z
2021-05-15T09:46:39Z,42.805,6.029,13.2993,4.60000,2470.624,2021-5-15T11:47:50Z
2021-05-15T09:49:42Z,42.805,6.029,13.2991,4.60010,2470.624,2021-5-15T11:50:53Z
2021-05-15T09:52:46Z,42.805,6.029,13.2990,4.60009,2470.624,2021-5-15T11:53:57Z
2021-05-15T09:55:49Z,42.805,6.029,13.2990,4.60009,2470.624,2021-5-15T11:57:00Z
2021-05-15T09:58:52Z,42.805,6.029,13.2992,4.60010,2470.646,2021-5-15T12:00:03Z
2021-05-15T10:01:55Z,42.805,6.029,13.2993,4.60000,2470.624,2021-5-15T12:03:06Z
2021-05-15T10:04:58Z,42.805,6.029,13.2991,4.59996,2470.6,2021-5-15T12:06:09Z
2021-05-15T10:08:01Z,42.805,6.029,13.2985,4.59997,2470.637,2021-5-15T12:09:12Z
2021-05-15T10:11:04Z,42.805,6.029,13.2988,4.60009,2470.661,2021-5-15T12:12:15Z
2021-05-15T10:14:07Z,42.805,6.029,13.2990,4.60003,2470.646,2021-5-15T12:15:18Z
2021-05-15T10:17:11Z,42.805,6.029,13.2986,4.60005,2470.61,2021-5-15T12:18:22Z
2021-05-15T10:20:14Z,42.805,6.029,13.2991,4.60003,2470.637,2021-5-15T12:21:25Z
2021-05-15T10:23:17Z,42.805,6.029,13.2990,4.60007,2470.646,2021-5-15T12:24:28Z
2021-05-15T10:26:20Z,42.805,6.029,13.2991,4.60004,2470.614,2021-5-15T12:27:31Z
2021-05-15T10:29:23Z,42.805,6.029,13.2990,4.60004,2470.624,2021-5-15T12:30:34Z
2021-05-15T10:32:26Z,42.805,6.029,13.2993,4.60006,2470.624,2021-5-15T12:33:37Z
2021-05-15T10:35:29Z,42.805,6.029,13.2987,4.60000,2470.6,2021-5-15T12:36:40Z
2021-05-15T10:38:32Z,42.805,6.029,13.2986,4.60004,2470.6,2021-5-15T12:39:43Z
2021-05-15T10:41:36Z,42.805,6.029,13.2990,4.60004,2470.6,2021-5-15T12:42:47Z
2021-05-15T10:44:39Z,42.805,6.029,13.2991,4.60004,2470.614,2021-5-15T12:45:50Z
2021-05-15T10:47:42Z,42.805,6.029,13.2991,4.60004,2470.577,2021-5-15T12:48:53Z
2021-05-15T10:50:45Z,42.805,6.029,13.2989,4.60005,2470.624,2021-5-15T12:51:56Z
2021-05-15T10:53:48Z,42.805,6.029,13.2996,4.60003,2470.591,2021-5-15T12:54:59Z
2021-05-15T10:56:51Z,42.805,6.029,13.2990,4.60002,2470.6,2021-5-15T12:58:02Z
2021-05-15T10:59:54Z,42.805,6.029,13.2989,4.60006,2470.6,2021-5-15T13:01:05Z
2021-05-15T11:02:57Z,42.805,6.029,13.2991,4.60005,2470.577,2021-5-15T13:04:09Z
2021-05-15T11:06:01Z,42.805,6.029,13.2990,4.60003,2470.577,2021-5-15T13:07:12Z
2021-05-15T11:09:04Z,42.805,6.029,13.2993,4.60000,2470.6,2021-5-15T13:10:15Z
2021-05-15T11:12:07Z,42.805,6.029,13.2991,4.60007,2470.624,2021-5-15T13:13:18Z
2021-05-15T11:15:10Z,42.805,6.029,13.2986,4.59996,2470.577,2021-5-15T13:16:21Z
2021-05-15T11:18:13Z,42.805,6.029,13.2992,4.60009,2470.577,2021-5-15T13:19:24Z
2021-05-15T11:21:16Z,42.805,6.029,13.2989,4.60005,2470.544,2021-5-15T13:22:27Z
2021-05-15T11:24:19Z,42.805,6.029,13.2991,4.60006,2470.614,2021-5-15T13:25:30Z
2021-05-15T11:27:22Z,42.805,6.029,13.2997,4.60008,2470.614,2021-5-15T13:28:34Z
2021-05-15T11:30:26Z,42.805,6.029,13.2990,4.60001,2470.6,2021-5-15T13:31:37Z
2021-05-15T11:33:29Z,42.805,6.029,13.2989,4.59999,2470.553,2021-5-15T13:34:40Z
2021-05-15T11:36:32Z,42.805,6.029,13.2990,4.60006,2470.544,2021-5-15T13:37:43Z
2021-05-15T11:39:35Z,42.805,6.029,13.2990,4.60004,2470.539,2021-5-15T13:40:46Z
2021-05-15T11:42:38Z,42.805,6.029,13.2990,4.60005,2470.567,2021-5-15T13:43:49Z
2021-05-15T11:45:41Z,42.805,6.029,13.2998,4.60006,2470.577,2021-5-15T13:46:52Z
2021-05-15T11:48:44Z,42.805,6.029,13.2990,4.60002,2470.553,2021-5-15T13:49:55Z
2021-05-15T11:51:48Z,42.805,6.029,13.2991,4.60006,2470.553,2021-5-15T13:52:59Z
2021-05-15T11:54:51Z,42.805,6.029,13.2985,4.59999,2470.553,2021-5-15T13:56:02Z
2021-05-15T11:57:54Z,42.805,6.029,13.2989,4.59999,2470.553,2021-5-15T13:59:05Z
2021-05-15T12:00:57Z,42.805,6.029,13.2996,4.60009,2470.553,2021-5-15T14:02:08Z
2021-05-15T12:04:00Z,42.805,6.029,13.2991,4.59997,2470.52,2021-5-15T14:05:11Z
2021-05-15T12:07:03Z,42.805,6.029,13.2991,4.60003,2470.53,2021-5-15T14:08:14Z
2021-05-15T12:10:06Z,42.805,6.029,13.2991,4.60008,2470.567,2021-5-15T14:11:17Z
2021-05-15T12:13:09Z,42.805,6.029,13.2991,4.60003,2470.567,2021-5-15T14:14:20Z
2021-05-15T12:16:13Z,42.805,6.029,13.2989,4.60000,2470.53,2021-5-15T14:17:24Z
2021-05-15T12:19:16Z,42.805,6.029,13.2988,4.60003,2470.544,2021-5-15T14:20:27Z
2021-05-15T12:22:19Z,42.805,6.029,13.2991,4.60005,2470.544,2021-5-15T14:23:30Z
2021-05-15T12:25:22Z,42.805,6.029,13.2993,4.60008,2470.53,2021-5-15T14:26:33Z
2021-05-15T12:28:25Z,42.805,6.029,13.2992,4.60004,2470.52,2021-5-15T14:29:36Z
2021-05-15T12:31:28Z,42.805,6.029,13.2994,4.60002,2470.567,2021-5-15T14:32:39Z
2021-05-15T12:34:31Z,42.805,6.029,13.2992,4.60006,2470.544,2021-5-15T14:35:42Z
2021-05-15T12:37:34Z,42.805,6.029,13.2993,4.60010,2470.507,2021-5-15T14:38:45Z
2021-05-15T12:40:38Z,42.805,6.029,13.2991,4.60003,2470.53,2021-5-15T14:41:49Z
2021-05-15T12:43:41Z,42.805,6.029,13.2986,4.60001,2470.52,2021-5-15T14:44:52Z
2021-05-15T12:46:44Z,42.805,6.029,13.2990,4.59999,2470.53,2021-5-15T14:47:55Z
2021-05-15T12:49:47Z,42.805,6.029,13.2993,4.60004,2470.507,2021-5-15T14:50:58Z
2021-05-15T12:52:50Z,42.805,6.029,13.2991,4.59998,2470.544,2021-5-15T14:54:01Z
2021-05-15T12:55:53Z,42.805,6.029,13.2991,4.60003,2470.567,2021-5-15T14:57:04Z
2021-05-15T12:58:56Z,42.805,6.029,13.2989,4.59997,2470.497,2021-5-15T15:00:07Z
2021-05-15T13:01:59Z,42.805,6.029,13.2992,4.60000,2470.544,2021-5-15T15:03:10Z
2021-05-15T13:05:03Z,42.805,6.029,13.2990,4.60006,2470.493,2021-5-15T15:06:14Z
2021-05-15T13:08:06Z,42.805,6.029,13.2986,4.60000,2470.497,2021-5-15T15:09:17Z
2021-05-15T13:11:09Z,42.805,6.029,13.2991,4.60004,2470.544,2021-5-15T15:12:20Z
2021-05-15T13:14:12Z,42.805,6.029,13.2990,4.60003,2470.507,2021-5-15T15:15:23Z
2021-05-15T13:17:15Z,42.805,6.029,13.2988,4.60000,2470.483,2021-5-15T15:18:26Z
2021-05-15T13:20:18Z,42.805,6.029,13.2987,4.60004,2470.493,2021-5-15T15:21:29Z
2021-05-15T13:23:21Z,42.805,6.029,13.2987,4.60009,2470.507,2021-5-15T15:24:32Z
2021-05-15T13:26:24Z,42.805,6.029,13.2988,4.59997,2470.497,2021-5-15T15:27:35Z
2021-05-15T13:29:28Z,42.805,6.029,13.2991,4.60004,2470.507,2021-5-15T15:30:39Z
2021-05-15T13:32:31Z,42.805,6.029,13.2992,4.60003,2470.507,2021-5-15T15:33:42Z
2021-05-15T13:35:34Z,42.805,6.029,13.2991,4.60006,2470.507,2021-5-15T15:36:45Z
2021-05-15T13:38:37Z,42.805,6.029,13.2993,4.59999,2470.53,2021-5-15T15:39:48Z
2021-05-15T13:41:40Z,42.805,6.029,13.2988,4.59999,2470.483,2021-5-15T15:42:51Z
2021-05-15T13:44:43Z,42.805,6.029,13.2992,4.60002,2470.507,2021-5-15T15:45:54Z
2021-05-15T13:47:46Z,42.805,6.029,13.2991,4.60001,2470.497,2021-5-15T15:48:57Z
2021-05-15T13:50:49Z,42.805,6.029,13.2988,4.59999,2470.52,2021-5-15T15:52:01Z
2021-05-15T13:53:53Z,42.805,6.029,13.2990,4.60001,2470.483,2021-5-15T15:55:04Z
2021-05-15T13:56:56Z,42.805,6.029,13.2990,4.59997,2470.483,2021-5-15T15:58:07Z
2021-05-15T13:59:59Z,42.805,6.029,13.2988,4.60001,2470.507,2021-5-15T16:01:10Z
2021-05-15T14:03:02Z,42.805,6.029,13.2991,4.60001,2470.483,2021-5-15T16:04:13Z
2021-05-15T14:06:05Z,42.805,6.029,13.2990,4.59997,2470.483,2021-5-15T16:07:16Z
2021-05-15T14:09:08Z,42.805,6.029,13.2993,4.60002,2470.46,2021-5-15T16:10:19Z
2021-05-15T14:12:11Z,42.805,6.029,13.2991,4.60001,2470.507,2021-5-15T16:13:22Z
2021-05-15T14:15:14Z,42.805,6.029,13.2988,4.59999,2470.507,2021-5-15T16:16:25Z
2021-05-15T14:18:18Z,42.805,6.029,13.2987,4.60002,2470.497,2021-5-15T16:19:29Z
2021-05-15T14:21:21Z,42.805,6.029,13.2989,4.59999,2470.483,2021-5-15T16:22:32Z
2021-05-15T14:24:24Z,42.805,6.029,13.2990,4.60004,2470.47,2021-5-15T16:25:35Z
2021-05-15T14:27:27Z,42.805,6.029,13.2991,4.60003,2470.46,2021-5-15T16:28:38Z
2021-05-15T14:30:30Z,42.805,6.029,13.2989,4.60007,2470.483,2021-5-15T16:31:41Z
2021-05-15T14:33:33Z,42.805,6.029,13.2994,4.60006,2470.483,2021-5-15T16:34:44Z
2021-05-15T14:36:36Z,42.805,6.029,13.2990,4.60000,2470.507,2021-5-15T16:37:47Z
2021-05-15T14:39:40Z,42.805,6.029,13.2988,4.60003,2470.46,2021-5-15T16:40:51Z
2021-05-15T14:42:43Z,42.805,6.029,13.2990,4.60003,2470.507,2021-5-15T16:43:54Z
2021-05-15T14:45:46Z,42.805,6.029,13.2991,4.60000,2470.483,2021-5-15T16:46:57Z
2021-05-15T14:48:49Z,42.805,6.029,13.2989,4.59997,2470.483,2021-5-15T16:50:00Z
2021-05-15T14:51:52Z,42.805,6.029,13.2992,4.59999,2470.483,2021-5-15T16:53:03Z
2021-05-15T14:54:55Z,42.805,6.029,13.2986,4.59999,2470.483,2021-5-15T16:56:06Z
2021-05-15T14:57:58Z,42.805,6.029,13.2993,4.60006,2470.507,2021-5-15T16:59:09Z
2021-05-15T15:01:01Z,42.805,6.029,13.2990,4.60002,2470.497,2021-5-15T17:02:12Z
2021-05-15T15:04:04Z,42.805,6.029,13.2993,4.60003,2470.483,2021-5-15T17:05:16Z
2021-05-15T15:07:08Z,42.805,6.029,13.2991,4.60001,2470.483,2021-5-15T17:08:19Z
2021-05-15T15:10:11Z,42.805,6.029,13.2991,4.60003,2470.46,2021-5-15T17:11:22Z
2021-05-15T15:13:14Z,42.805,6.029,13.2986,4.60007,2470.497,2021-5-15T17:14:25Z